Satellite: SRMSAT Catalog number: 37841 Epoch time: 12088.41487279 Element set: 118 Inclination: 019.9728 deg RA of node: 130.8565 deg Eccentricity: 0.0011675 Arg of perigee: 023.4267 deg Mean anomaly: 336.6693 deg Mean motion: 14.10124577 rev/day Decay rate: 2.64e-06 rev/day^2 Epoch rev: 2377 Checksum: 310
Satellite: RAX-2 Catalog number: 37853 Epoch time: 12087.97354212 Element set: 0144 Inclination: 101.7172 deg RA of node: 091.2252 deg Eccentricity: 0.0249871 Arg of perigee: 222.2380 deg Mean anomaly: 135.9333 deg Mean motion: 14.79251602 rev/day Decay rate: 2.471e-05 rev/day^2 Epoch rev: 02239 Checksum: 281
Satellite: AUBIESAT Catalog number: 37854 Epoch time: 12088.48872981 Element set: 136 Inclination: 101.7166 deg RA of node: 092.1228 deg Eccentricity: 0.0251414 Arg of perigee: 219.9733 deg Mean anomaly: 138.2721 deg Mean motion: 14.79579933 rev/day Decay rate: 2.439e-05 rev/day^2 Epoch rev: 2245 Checksum: 320
Satellite: HRBE Catalog number: 37855 Epoch time: 12088.56306375 Element set: 135 Inclination: 101.7197 deg RA of node: 092.2077 deg Eccentricity: 0.0251449 Arg of perigee: 219.9600 deg Mean anomaly: 138.2860 deg Mean motion: 14.79468373 rev/day Decay rate: 2.337e-05 rev/day^2 Epoch rev: 2246 Checksum: 313
Satellite: RS-39 Catalog number: 38051 Epoch time: 12088.44815382 Element set: 193 Inclination: 051.6419 deg RA of node: 184.1942 deg Eccentricity: 0.0011131 Arg of perigee: 105.4282 deg Mean anomaly: 349.3903 deg Mean motion: 15.22928230 rev/day Decay rate: 6.591e-05 rev/day^2 Epoch rev: 966 Checksum: 296
Satellite: E-STAR Catalog number: 38079 Epoch time: 12088.28256558 Element set: 108 Inclination: 069.4919 deg RA of node: 139.8433 deg Eccentricity: 0.0771307 Arg of perigee: 349.6147 deg Mean anomaly: 008.9770 deg Mean motion: 14.08655466 rev/day Decay rate: 3.4063e-04 rev/day^2 Epoch rev: 616 Checksum: 337
Satellite: GOLIAT Catalog number: 38085 Epoch time: 12088.50959210 Element set: 106 Inclination: 069.4865 deg RA of node: 139.3775 deg Eccentricity: 0.0770521 Arg of perigee: 349.2869 deg Mean anomaly: 009.2655 deg Mean motion: 14.08074427 rev/day Decay rate: 3.2289e-04 rev/day^2 Epoch rev: 619 Checksum: 328
/EX